Zurück zum Katalog

SPACENET 3R

AktivKommunikationGEO
NORAD 18951·PAYLOAD·🇺🇸 United States

Gestartet Mar 11, 1988 von Guiana Space Centre

Loading…

TLE

AktuellSource: Space-Track

Epoche: Sep 11, 2026, 01:53 UTC

1 18951U 88018A   26254.07873677 -.00000252  00000-0  00000-0 0  9993
2 18951  14.7122 359.0214 0004529 248.5773 112.0687  0.99666861125478

Verfolge SPACENET 3R in Echtzeit mit AllMySat

Download on the App Store